Regional Weather Roundup
Issued by NWS

Home | Current Version | Previous Version | Graphics & Text | Print | Product List | Glossary On
Versions: 1 2 3 4 5 6 7 8 9 10 11 12 13 14 15 16 17 18 19 20 21 22 23 24 25 26 27 28 29 30 31 32 33 34 35 36 37 38 39 40 41 42 43 44 45 46 47 48 49 50
000
ASUS43 KFSD 260302
RWRSD

WEATHER ROUNDUP FOR SOUTH DAKOTA
NATIONAL WEATHER SERVICE SIOUX FALLS SD
1000 PM CDT SUN SEP 25 2016

NOTE: "FAIR" INDICATES FEW OR NO CLOUDS BELOW 12,000 FEET WITH NO
SIGNIFICANT WEATHER AND/OR OBSTRUCTIONS TO VISIBILITY.


SDZ001>005-009-010-012>017-260400-
NORTHWEST AND NORTH CENTRAL SOUTH DAKOTA

CITY           SKY/WX    TMP DP  RH WIND       PRES   REMARKS
BUFFALO          N/A     49  37  63 W12       30.23R
FAITH            N/A     51  37  58 W9        30.26S
MOBRIDGE       CLEAR     51  35  54 W3        30.18R
$$

SDZ012>016-024>037-041>051-057-063-072>074-260400-
SOUTHWEST AND SOUTH CENTRAL SOUTH DAKOTA

CITY           SKY/WX    TMP DP  RH WIND       PRES   REMARKS
RAPID CTY ARPT CLEAR     46  34  62 NW8       30.32R
PIERRE         CLEAR     55  35  47 W9        30.23R
CUSTER         CLEAR     45  28  51 N5        30.38S
ELLSWORTH AFB  CLEAR     46  34  62 NW8       30.32R
PHILIP         CLEAR     45  33  63 W7        30.29R
PINE RIDGE     CLEAR     40  30  67 NE5       30.35R HAZE
WINNER         FAIR      50  31  48 W8        30.27R
$$

SDZ004>011-016>023-039-040-260400-
NORTHEAST SOUTH DAKOTA

CITY           SKY/WX    TMP DP  RH WIND       PRES   REMARKS
ABERDEEN       CLEAR     54  34  46 W12       30.14R
WATERTOWN      PTCLDY    54  37  52 W13       30.11R
SISSETON         N/A     57  37  47 NW15      30.05R
$$

SDZ017-020-022-023-036>040-048>070-260400-
SOUTHEAST SOUTH DAKOTA

CITY           SKY/WX    TMP DP  RH WIND       PRES   REMARKS
SIOUX FALLS    PTCLDY    53  39  59 W8        30.17R
HURON          CLEAR     48  35  60 W10       30.17R
CHAMBERLAIN    CLEAR     50  34  53 W7        30.24R
MITCHELL       CLEAR     54  34  46 W8        30.20R
YANKTON        CLEAR     55  36  47 W13       30.20R
$$

ABBREVIATIONS USED IN REMARKS
   TC - TEMPERATURE IN CELSIUS
  WCI - WIND CHILL INDEX
   HX - HEAT INDEX
  VSB - VISIBILITY





USA.gov is the U.S. government's official web portal to all federal, state and local government web resources and services.